THORAD AGENA D DEB, 4920

Orbit data source: Space-Track

THORAD AGENA D DEB, 4920 is space debris in SSO originally from a launch on Wed, 08 Apr 1970 UTC launched from the Air Force Western Test Range (AFWTR). Debris objects in space refer to the collection of defunct objects orbiting the Earth. Examples of debris include non-operational satellites, rocket bodies, and fragments generated from explosions, collisions, or faulty payload assembly.

Loading next visibility...
Identifier
4920, 1970-025FS
Orbit
SSO
Country
Flag of USUS
Related business
Manufacturer
Unknown
Mission
Spacecraft
Bus & Motor
Unknown
Mass
Unknown
Launch date (UTC)
1970-04-08 (56 years ago)
Launch vehicle
Unknown
Launch site
Air Force Western Test Range (AFWTR)
Object type
Payload
Rocket body
Debris
Shape & HBR
Unknown shape, 0.2 m
Radar Cross Section
Medium (>0.1 m² and <1 m²)

Expand to show TLE details & history
Last TLE update: 13 hours ago

TLE from 13 hours ago
0 THORAD AGENA D DEB
1 04920U 70025FS  26208.16856675  .00000247  00000-0  43967-3 0  9996
2 04920  99.4329 100.3783 0088773 268.1505 247.0286 13.50550831758960
Epoch: 2026-07-27T04:02Z
TLE epoch observation values (Epoch: 2026-07-27T04:02:44.167Z)
Latitude
25.41057°
Longitude
-80.65812°
Altitude
1,099.513 km
Speed
7.292 km/s
True Right ascension
18h 59m 31s
True Declination
25° 17' 01"
Sunlit
Object was in full shadow at epoch
Visualization orbit readout
Latitude
Unknown
Longitude
Unknown
Altitude
Unknown
Speed
Unknown
Apparent Right ascension
Unknown
Apparent Declination
Unknown
Sunlit
N/A
Visualization observer readout
Local Sidereal Time
05:56:14
Azimuth
Unknown
Elevation
Unknown
Doppler factor
Unknown
Orbital elements
Apogee altitude
1,133.617 km
Perigee altitude
1,001.422 km
Semi-major axis
7,445.656 km
Eccentricity
0.00888
Inclination
99.4329°
RAAN
100.3783°
Arg. of periapsis
268.1505°
True anomaly
246.09609°
Mean anomaly
247.0286°
Eccentric anomaly
246.56194°
Mean motion
3.37823 °/min
Orbital period
106.56 mins
BSTAR
0.00043967
Loading maneuver chart data...
Computing Atmospheric mass density...

Documentation

Showing up to 5 results
|